Change the Weather History Date:

Friday, January 18, 2013

  Actual Average Record
Temperature  
Mean Temperature 37 °F -  
Max Temperature 45 °F - - ()
Min Temperature 29 °F - - ()
Degree Days  
Heating Degree Days 28    
Moisture  
Dew Point 16 °F    
Average Humidity 36    
Maximum Humidity 80    
Minimum Humidity 20    
Precipitation  
Precipitation 0.00 in - - ()
Sea Level Pressure  
Sea Level Pressure 29.80 in    
Wind  
Wind Speed 15 mph ()    
Max Wind Speed 26 mph    
Max Gust Speed 44 mph    
T = Trace of Precipitation, MM = Missing Value Source: Averaged Metar Reports

Daily Weather History Graph

Daily Weather History Graph

Search for Another Location

Airport or City:

Trip Planner

Search our weather history database for the weather conditions in past years. The results will help you decide how hot, cold, wet, or windy it might be!

Date:

Astronomy

Jan. 18, 2013 Rise Set
Actual Time 8:34 AM MST 5:07 PM MST
Civil Twilight 7:56 AM MST 5:45 PM MST
Nautical Twilight 7:15 AM MST 6:26 PM MST
Astronomical Twilight 6:36 AM MST 7:06 PM MST
Moon 11:18 AM MST (1/18) 12:56 AM MST (1/18)
Length of Visible Light 9h 48m
Length of Day
8h 33m
Waxing Crescent, 48% of the Moon is Illuminated
Jan 18
Waxing Crescent
Jan 18
First Quarter
Jan 26
Full
Feb 3
Last Quarter
Feb 10
New

Hourly Weather History & Observations

Time (MST) Temp. Windchill Dew Point Humidity Pressure Visibility Wind Dir Wind Speed Gust Speed Precip Events Conditions
12:00 AM 43.9 °F 35.7 °F 11.7 °F 27% 29.76 in - West 19.6 mph 38.0 mph N/A   Unknown
1:00 AM 43.0 °F 34.8 °F 13.1 °F 30% 29.78 in - West 18.4 mph 29.9 mph N/A   Unknown
2:00 AM 43.0 °F 35.4 °F 14.5 °F 32% 29.77 in - West 16.1 mph 33.4 mph N/A   Unknown
3:00 AM 42.8 °F 34.8 °F 14.9 °F 32% 29.78 in - West 17.3 mph 33.4 mph N/A   Unknown
4:00 AM 42.4 °F 36.5 °F 17.4 °F 37% 29.79 in - WSW 10.4 mph 20.7 mph N/A   Unknown
5:00 AM 42 °F - 18 °F 24% 29.76 in - West 11.5 mph - -  
5:00 AM 42.4 °F 36.1 °F 17.6 °F 37% 29.76 in - West 11.5 mph 23.0 mph N/A   Unknown
6:00 AM 43.0 °F 36.0 °F 18.1 °F 37% 29.73 in - West 13.8 mph 31.1 mph N/A   Unknown
7:00 AM 42.8 °F 35.1 °F 18.1 °F 37% 29.72 in - West 16.1 mph 29.9 mph N/A   Unknown
8:00 AM 42.6 °F 35.6 °F 17.2 °F 36% 29.73 in - West 13.8 mph 28.8 mph N/A   Unknown
9:00 AM 42.6 °F 33.5 °F 16.9 °F 35% 29.75 in - West 21.9 mph 35.7 mph N/A   Unknown
10:00 AM 42.3 °F 32.2 °F 17.2 °F 37% 29.72 in - West 26.5 mph 38.0 mph N/A   Unknown
11:00 AM 43 °F - 17 °F 22% 29.73 in - West 23.0 mph - -  
11:00 AM 43.3 °F 34.2 °F 17.2 °F 35% 29.73 in - West 23.0 mph 43.7 mph N/A   Unknown
12:00 PM 43.9 °F 34.3 °F 17.2 °F 34% 29.73 in - West 26.5 mph 43.7 mph N/A   Unknown
1:00 PM 44.8 °F 38.3 °F 16.3 °F 32% 29.74 in - West 13.8 mph 31.1 mph N/A   Unknown
2:00 PM 43.9 °F 37.2 °F 16.5 °F 33% 29.77 in - West 13.8 mph 24.2 mph N/A   Unknown
3:00 PM 43.2 °F 34.7 °F 15.8 °F 33% 29.78 in - West 19.6 mph 33.4 mph N/A   Unknown
4:00 PM 42.1 °F 32.6 °F 15.3 °F 34% 29.78 in - West 23.0 mph 39.1 mph N/A   Unknown
5:00 PM 42 °F - 15 °F 20% 29.79 in - West 25.3 mph - -  
5:00 PM 42.3 °F 32.4 °F 14.7 °F 33% 29.79 in - West 25.3 mph 39.1 mph N/A   Unknown
6:00 PM 41.2 °F 31.9 °F 14.4 °F 34% 29.83 in - West 20.7 mph 32.2 mph N/A   Unknown
7:00 PM 41.2 °F 33.0 °F 13.6 °F 33% 29.88 in - West 16.1 mph 32.2 mph N/A   Unknown
8:00 PM 40.6 °F 32.7 °F 13.3 °F 33% 29.89 in - West 15.0 mph 25.3 mph N/A   Unknown
9:00 PM 39.9 °F 32.9 °F 12.4 °F 32% 29.92 in - West 11.5 mph 20.7 mph N/A   Unknown
10:00 PM 40.1 °F 32.7 °F 11.7 °F 31% 29.95 in - West 12.7 mph 25.3 mph N/A   Unknown
11:00 PM 29 °F - 24 °F 74% 30.01 in - NE 6.9 mph - -  
11:00 PM 29.5 °F 22.5 °F 23.9 °F 80% 30.01 in - NE 6.9 mph - N/A   Unknown